User: anonymous   Login
Location: Unspecified
(40.7945°N, 0.0000°E)
Time: 05:17:53
(UTC+00:00)
Language:

XW-2F - Orbit

View from above orbital plane
View from above orbital plane
View from above satellite
View from above satellite

Ground track
Ground track

The orbit data is extracted from the following two-line orbital elements,

1 40910U 15049M   19233.84576771  .00000388  00000-0  22792-4 0  9991
2 40910 097.4631 236.6310 0013933 332.8049 147.5320 15.17368276216743
Epoch (UTC): 21 August 2019 20:17:54
Eccentricity: 0.0013933
inclination: 97.4631°
perigee height: 504 km
apogee height: 523 km
right ascension of ascending node: 236.6310°
argument of perigee: 332.8049°
revolutions per day: 15.17368276
mean anomaly at epoch: 147.5320°
orbit number at epoch: 21674

The dashed part of the orbit path shows where the satellite is in the earth's shadow,  

DLR